Back to catalog

STARLINK-37683

AliveCommunicationsVLEO
NORAD 69367·PAYLOAD·🇺🇸 United States

Launched Jun 4, 2026 from Cape Canaveral Space Force Station

Loading…

Next Passes (next 24 hours)

TLE

FreshSource: CelesTrak SupGP

Epoch: Sep 14, 2026, 23:32 UTC

1 69367C 26123Q   26257.98104167 -.00063104  00000+0 -18642-2 0  2578
2 69367  53.1593 167.7678 0001302  78.3894 127.1205 15.34425687    10

Track STARLINK-37683 in real time with AllMySat

Download on the App Store